Weather History for San Antonio Stinson, TX

Change the Weather History Date:

Thursday, February 27, 2014

  Actual Average Record
Temperature  
Mean Temperature 46 °F -  
Max Temperature 57 °F 64 °F 91 °F (2011)
Min Temperature 34 °F 46 °F 19 °F (2002)
Degree Days  
Heating Degree Days 20    
Moisture  
Dew Point 32 °F    
Average Humidity 64    
Maximum Humidity 92    
Minimum Humidity 37    
Precipitation  
Precipitation 0.00 in - - ()
Sea Level Pressure  
Sea Level Pressure 30.08 in    
Wind  
Wind Speed 3 mph (South)    
Max Wind Speed 9 mph    
Max Gust Speed -    
Visibility 9 miles    
Events      
Averages and records for this station are not official NWS values.
T = Trace of Precipitation, MM = Missing Value Source: NWS Daily Summary

Daily Weather History Graph

Daily Weather History Graph

Search for Another Location

Airport:

Trip Planner

Search our weather history database for the weather conditions in past years. The results will help you decide how hot, cold, wet, or windy it might be!

Date:

Astronomy

Feb. 27, 2014 Rise Set
Actual Time 7:01 AM CST 6:32 PM CST
Civil Twilight 6:37 AM CST 6:56 PM CST
Nautical Twilight 6:09 AM CST 7:23 PM CST
Astronomical Twilight 5:42 AM CST 7:51 PM CST
Moon 5:29 AM CST (2/27) 5:03 PM CST (2/27)
Length of Visible Light 12h 18m
Length of Day
11h 30m
Waning Crescent, 4% of the Moon is Illuminated
Feb 27
Waning Crescent
Mar 1
New
Mar 8
First Quarter
Mar 16
Full
Mar 23
Last Quarter

Hourly Weather History & Observations

Time (CST) Temp. Windchill Dew Point Humidity Pressure Visibility Wind Dir Wind Speed Gust Speed Precip Events Conditions
12:53 AM 36.0 °F 33.3 °F 33.1 °F 89% 30.19 in 4.0 mi West 3.5 mph - N/A   Clear
1:53 AM 35.1 °F - 33.1 °F 92% 30.19 in 4.0 mi Calm Calm - N/A   Clear
2:53 AM 36.0 °F - 33.1 °F 89% 30.18 in 5.0 mi Calm Calm - N/A   Clear
3:53 AM 34.0 °F - 30.9 °F 89% 30.16 in 4.0 mi Calm Calm - N/A   Clear
4:53 AM 35.1 °F - 30.9 °F 85% 30.16 in 9.0 mi Calm Calm - N/A   Clear
5:53 AM 35.1 °F - 30.0 °F 82% 30.16 in 10.0 mi Calm Calm - N/A   Clear
6:53 AM 34.0 °F - 30.0 °F 85% 30.17 in 8.0 mi Calm Calm - N/A   Clear
7:53 AM 35.1 °F - 32.0 °F 89% 30.20 in 6.0 mi Calm Calm - N/A   Clear
8:53 AM 42.1 °F - 33.1 °F 70% 30.21 in 10.0 mi Calm Calm - N/A   Clear
9:53 AM 45.0 °F 42.6 °F 26.1 °F 48% 30.21 in 10.0 mi Variable 4.6 mph - N/A   Clear
10:53 AM 48.0 °F - 26.1 °F 42% 30.19 in 10.0 mi East 4.6 mph - N/A   Clear
11:53 AM 50.0 °F - 26.1 °F 39% 30.16 in 10.0 mi South 3.5 mph - N/A   Clear
12:53 PM 53.1 °F - 27.0 °F 37% 30.12 in 10.0 mi Variable 3.5 mph - N/A   Clear
3:53 PM 55.0 °F - 32.0 °F 42% 29.97 in 10.0 mi Variable 3.5 mph - N/A   Clear
4:53 PM 57.0 °F - 32.0 °F 39% 29.95 in 10.0 mi SSE 9.2 mph - N/A   Clear
5:53 PM 57.0 °F - 34.0 °F 42% 29.94 in 10.0 mi SSE 5.8 mph - N/A   Clear
6:53 PM 54.0 °F - 34.0 °F 47% 29.94 in 10.0 mi South 4.6 mph - N/A   Clear
7:53 PM 52.0 °F - 37.0 °F 57% 29.95 in 10.0 mi SSW 6.9 mph - N/A   Clear
8:53 PM 50.0 °F - 36.0 °F 59% 29.95 in 10.0 mi SSW 6.9 mph - N/A   Clear
9:53 PM 48.0 °F - 36.0 °F 63% 29.96 in 10.0 mi SSW 4.6 mph - N/A   Clear
10:53 PM 48.0 °F - 35.1 °F 61% 29.95 in 10.0 mi SSW 4.6 mph - N/A   Clear
11:53 PM 46.0 °F 41.9 °F 37.0 °F 71% 29.94 in 10.0 mi South 8.1 mph - N/A   Clear